AirNav   ProFlight Series 2 Aviation Headset
 
 760 users online  

42VA Virginia Beach Airport
Virginia Beach, Virginia, USA

GOING TO VIRGINIA BEACH?


FAA INFORMATION EFFECTIVE 18 JUNE 2020

Location

FAA Identifier: 42VA
Lat/Long: 36-40-44.0550N 076-01-57.9950W
36-40.734250N 076-01.966583W
36.6789042,-76.0327764
(estimated)
Elevation: 15 ft. / 5 m (estimated)
Variation: 10W (1990)
From city: 4 miles SE of VIRGINIA BEACH, VA
Time zone: UTC -4 (UTC -5 during Standard Time)
Zip code: 23457

Airport Operations

Airport use: Private use. Permission required prior to landing
Activation date: 04/1993
Control tower: no
ARTCC: WASHINGTON CENTER
FSS: LEESBURG FLIGHT SERVICE STATION
Attendance: UNATNDD
Wind indicator: yes
Segmented circle: no

Airport Communications

WX ASOS at NTU (9 nm N): PHONE DSN 433-3619 or 757-433-3619
WX AWOS-3 at CPK (14 nm W): 123.675 (757-204-4290)
WX ASOS at ORF (15 nm NW): PHONE 757-460-9348
WX AWOS-3 at ONX (17 nm S): 119.775 (252-453-8939)

Nearby radio navigation aids

VOR radial/distance  VOR name  Freq  Var
ORFr155/15.1NORFOLK VORTAC116.9007W
ECGr022/26.2ELIZABETH CITY VOR/DME112.5007W

 
NDB name  Hdg/Dist  Freq  Var  ID
INGLE142/14.332909WOR --- .-.
WOODVILLE037/28.025410WLLW .-.. .-.. .--

Airport Services

Runway Information

Runway 11/29

Dimensions: 4845 x 190 ft. / 1477 x 58 m
Surface: turf, in good condition
RUNWAY 11  RUNWAY 29
Latitude: 36-40.824167N36-40.644333N
Longitude: 076-02.449500W076-01.483667W
Elevation: 10.0 ft.9.0 ft.
Traffic pattern: leftleft

Airport Ownership and Management from official FAA records

Ownership: Privately-owned
Owner: VIRGINIA BEACH ARPT, LLC
4455 SOUTH BLVD
VIRGINIA BEACH, VA 23452
Phone 757-490-3157
Manager: GERALD YAGEN
4455 SOUTH BLVD
VIRGINIA BEACH, VA 23452
Phone 757-490-3157
EXTENSION 500.

Airport Operational Statistics

Aircraft based on the field: 54
Single engine airplanes: 50
Multi engine airplanes: 4
    

Additional Remarks

AWOS - PHONE 757-204-2683, FREQUENCY 119.925
FOR CD CTC WASHINGTON ARTCC AT 703-771-3587.

Instrument Procedures

There are no published instrument procedures at 42VA.

Some nearby airports with instrument procedures:

KNTU - Oceana Naval Air Station (Apollo Soucek Field) (9 nm N)
KCPK - Chesapeake Regional Airport (14 nm W)
KORF - Norfolk International Airport (15 nm NW)
KONX - Currituck County Regional Airport (17 nm S)
KNGU - Norfolk Naval Station (Chambers Field) (20 nm NW)
 
Loc | Ops | Rwys | IFR | FBO | Links
Com | Nav | Svcs | Stats | Notes
Area around 42VA (Virginia Beach Airport)
 
Road maps at: MapQuest Bing Google
 
Aerial photo
WARNING: Photo may not be current or correct
Aerial photo of 42VA (Virginia Beach Airport)
Photo by Jerry Yagen
Photo taken 10-Nov-2012
looking east.

Do you have a better or more recent aerial photo of Virginia Beach Airport that you would like to share? If so, please send us your photo.

 
Sectional chart

 
Airport distance calculator
Flying to Virginia Beach Airport? Find the distance to fly.

From to 42VA

Sunrise and sunset
Times for 05-Jul-2020
 Local
(UTC-4)
 Zulu
(UTC)
Morning civil twilight05:2209:22
Sunrise05:5309:53
Sunset20:2500:25
Evening civil twilight20:5500:55

Current date and time
Zulu (UTC)  06-Jul-2020 03:21:46
Local (UTC-4)  05-Jul-2020 23:21:46
 
METAR
KNFE 
5nm W 
060256Z AUTO 00000KT 10SM CLR 23/21 A3003 RMK AO2 SLP171 T02330206 53016
KNTU 
8nm N 
060256Z 19004KT 10SM BKN250 24/20 A3002 RMK AO2 SLP169 T02440200 53015
KCPK 
14nm W 
060255Z AUTO 00000KT 7SM CLR 23/20 A3004 RMK AO2 T02260202
KORF 
16nm NW 
060251Z 18006KT 10SM CLR 26/20 A3003 RMK AO2 SLP167 T02610200 53016
KONX 
17nm S 
060255Z AUTO 00000KT 10SM CLR 24/21 A3003 RMK AO2 T02380214
KNGU 
18nm NW 
060259Z 16006KT 10SM OVC300 27/19 A3004 RMK AO2 SLP172 T02670194 53017 $
TAF
KNTU 
8nm N 
0523/0623 12008KT 9999 SCT150 SCT250 QNH2991INS BECMG 0600/0602 VRB06KT 9999 FEW150 SCT250 QNH2990INS BECMG 0614/0616 20008KT 9999 FEW050 SCT250 QNH2994INS T22/0609Z T32/0619Z FN00214
KORF 
16nm NW 
051739Z 0518/0618 08008KT P6SM BKN100 FM052100 15006KT P6SM SCT150 FM060300 20006KT P6SM SCT250
KNGU 
18nm NW 
0523/0623 12008KT 9999 SCT130 BKN260 QNH2992INS BECMG 0600/0602 VRB06KT 9999 FEW150 SCT250 QNH2991INS BECMG 0614/0616 20008KT 9999 FEW050 SCT250 QNH2996INS T24/0609Z T34/0619Z FN00214
NOTAMs
Click for the latest NOTAMs
NOTAMs are issued by the DoD/FAA and will open in a separate window not controlled by AirNav.

 

 
 

Would you like to see your business listed on this page?

 If your business provides an interesting product or service to pilots, flight crews, aircraft, or users of the Virginia Beach Airport, you should consider listing it here.  To start the listing process, click on the button below
 
Add a business
 

Other Pages about Virginia Beach Airport

www.vbairport.com
Military Aviation Museum
www.fighterfactory.com
 
Update a link
 
Copyright © AirNav, LLC. All rights reserved. Privacy Policy  Contact